This demonstration page uses our WeatherBlox Daily Observations layout. Learn more.

Left ArrowRight Arrow

53.62937, 11.41316

Hourly Observations for August 20, 2022

Temp ( °F °C ) Dew Point ( °F °C ) Humidity (%) Winds ( mph kmh ) Pressure ( in mb ) Visibility ( mi km ) Precip ( " mm )
12:20 am 00:20 Partly Cloudy 63 17 61 16 94 94 VRB 2 4 29.91 1013 4 7 0.00 0.00
12:50 am 00:50 Mostly Clear 63 17 61 16 94 94 WSW 3 6 29.91 1013 3 5 0.00 0.00
1:20 am 01:20 Mostly Clear 63 17 61 16 94 94 VRB 2 4 29.91 1013 3 5 0.00 0.00
1:50 am 01:50 Mostly Clear 63 17 61 16 94 94 W 3 6 29.91 1013 2 4 0.00 0.00
2:20 am 02:20 Mostly Clear 61 16 61 16 100 100 VRB 2 4 29.91 1013 3 5 0.00 0.00
2:50 am 02:50 Mostly Clear 61 16 61 16 100 100 W 5 7 29.91 1013 3 5 0.00 0.00
3:20 am 03:20 Mostly Clear 61 16 61 16 100 100 WNW 3 6 29.91 1013 5 8 0.00 0.00
3:50 am 03:50 Mostly Cloudy 61 16 61 16 100 100 VRB 1 2 29.91 1013 4 7 0.00 0.00
4:20 am 04:20 Cloudy 61 16 61 16 100 100 WSW 2 4 29.91 1013 3 5 0.00 0.00
4:50 am 04:50 Mostly Cloudy 61 16 61 16 100 100 SW 3 6 29.91 1013 5 8 0.00 0.00
5:20 am 05:20 Mostly Cloudy 63 17 59 15 88 88 VRB 2 4 29.91 1013 6 10 0.00 0.00
5:50 am 05:50 Mostly Clear 63 17 59 15 88 88 VRB 2 4 29.91 1013 6 10 0.00 0.00
6:20 am 06:20 Partly Cloudy 61 16 59 15 94 94 WSW 3 6 29.91 1013 6 10 0.00 0.00
6:50 am 06:50 Mostly Sunny 61 16 59 15 94 94 VRB 2 4 29.91 1013 6 10 0.00 0.00
7:20 am 07:20 Mostly Sunny 63 17 61 16 94 94 W 3 6 29.91 1013 6 10 0.00 0.00
7:50 am 07:50 Mostly Sunny 63 17 61 16 94 94 VRB 2 4 29.94 1014 6 10 0.00 0.00
8:20 am 08:20 Mostly Cloudy 64 18 61 16 88 88 W 3 6 29.94 1014 6 10 0.00 0.00
8:50 am 08:50 Mostly Cloudy 64 18 63 17 94 94 WNW 5 7 29.94 1014 6 10 0.00 0.00
9:20 am 09:20 Mostly Sunny 66 19 63 17 88 88 WNW 6 9 29.94 1014 6 10 0.00 0.00
9:50 am 09:50 Mostly Sunny 68 20 64 18 88 88 WNW 5 7 29.94 1014 6 10 0.00 0.00
10:20 am 10:20 Partly Cloudy 70 21 64 18 83 83 WNW 7 11 29.94 1014 6 10 0.00 0.00
10:50 am 10:50 Mostly Cloudy 72 22 63 17 73 73 NW 8 13 29.94 1014 6 10 0.00 0.00
11:20 am 11:20 Partly Cloudy 72 22 63 17 73 73 NW 7 11 29.94 1014 6 10 0.00 0.00
11:50 am 11:50 Partly Cloudy 73 23 63 17 69 69 NW 7 11 29.94 1014 6 10 0.00 0.00
12:20 pm 12:20 Mostly Sunny 73 23 61 16 65 65 NW 7 11 29.94 1014 6 10 0.00 0.00
12:50 pm 12:50 Mostly Sunny 73 23 61 16 65 65 WNW 8 13 29.94 1014 6 10 0.00 0.00
1:20 pm 13:20 Mostly Sunny 75 24 61 16 61 61 WNW 9 15 29.94 1014 6 10 0.00 0.00
1:50 pm 13:50 Partly Cloudy 75 24 59 15 57 57 W 7 11 29.94 1014 6 10 0.00 0.00
2:20 pm 14:20 Partly Cloudy 73 23 57 14 57 57 WNW 10 17 29.97 1015 6 10 0.00 0.00
2:50 pm 14:50 Partly Cloudy 75 24 55 13 50 50 W 8 13 29.97 1015 6 10 0.00 0.00
3:20 pm 15:20 Mostly Sunny 73 23 54 12 50 50 W 9 15 29.97 1015 6 10 0.00 0.00
3:50 pm 15:50 Mostly Sunny 75 24 55 13 50 50 W 7 11 29.97 1015 6 10 0.00 0.00
4:20 pm 16:20 Mostly Sunny 75 24 54 12 47 47 WNW 13 20 29.97 1015 6 10 0.00 0.00
4:50 pm 16:50 Mostly Sunny 73 23 52 11 47 47 NW 10 17 29.97 1015 6 10 0.00 0.00
5:20 pm 17:20 Mostly Sunny 75 24 52 11 44 44 W 9 15 29.97 1015 6 10 0.00 0.00
5:50 pm 17:50 Mostly Sunny 73 23 52 11 47 47 WNW 9 15 29.97 1015 6 10 0.00 0.00
6:20 pm 18:20 Mostly Sunny 73 23 50 10 44 44 WNW 9 15 29.97 1015 6 10 0.00 0.00
6:50 pm 18:50 Mostly Sunny 72 22 52 11 50 50 WNW 10 17 30.00 1016 6 10 0.00 0.00
7:20 pm 19:20 Mostly Sunny 72 22 54 12 53 53 WNW 10 17 30.00 1016 6 10 0.00 0.00
7:50 pm 19:50 Mostly Sunny 70 21 54 12 56 56 W 8 13 30.00 1016 6 10 0.00 0.00
8:20 pm 20:20 Mostly Sunny 68 20 54 12 60 60 WNW 7 11 30.00 1016 6 10 0.00 0.00
8:50 pm 20:50 Mostly Clear 66 19 54 12 64 64 W 3 6 30.00 1016 6 10 0.00 0.00
9:20 pm 21:20 Mostly Clear 63 17 55 13 77 77 W 3 6 30.00 1016 6 10 0.00 0.00
9:50 pm 21:50 Mostly Clear 64 18 54 12 68 68 W 5 7 30.00 1016 6 10 0.00 0.00
10:20 pm 22:20 Clear 61 16 55 13 82 82 W 3 6 30.00 1016 6 10 0.00 0.00
10:50 pm 22:50 Clear 61 16 54 12 77 77 VRB 2 4 30.03 1017 6 10 0.00 0.00
11:20 pm 23:20 Clear 57 14 54 12 88 88 VRB 2 4 30.00 1016 6 10 0.00 0.00
11:50 pm 23:50 Clear 59 15 54 12 82 82 VRB 2 4 30.03 1017 6 10 0.00 0.00

Powered by AerisWeather